Home > Weather > Rothesay > Past weeks

Flag for Canada Weather for the Past 2 Weeks in Rothesay, New Brunswick, Canada

Now
21 °F

Light snow. Mostly cloudy.


Feels Like: 6 °F
Forecast: 17 / 25 °F
Wind: 20 mph from Northeast

Location: Saint John

Current Time: Feb 8, 2016 at 11:58:21 PM

Latest Report: Feb 8, 2016 at 11:00 PM


Visibility: 2 mi

Pressure: 29.64 "Hg

Humidity: 86%

Dew point: 18 °F

Location of RothesayLocation

Historic Weather in Rothesay — Graph

°F

Rothesay Temperature Yesterday

Maximum temperature yesterday: 36 °F (at 10:00 AM)
Minimum temperature yesterday: 14 °F (at 11:00 PM)
Average temperature yesterday: 29 °F

High & Low Weather Summary for the Past Weeks

 TemperatureHumidityPressure
High48 °F (Feb 4, 5:00 AM)100% (Jan 29, 1:00 PM)30.53 "Hg (Jan 29, 1:00 PM)
Low3 °F (Jan 25, 11:00 PM)40% (Feb 2, 12:00 PM)29.26 "Hg (Jan 29, 4:00 PM)
Average29 °F79%29.96 "Hg
* Reported Jan 24 10:00 PM — Feb 8 10:00 PM, Rothesay, Weather by CustomWeather, © 2016

Note: Actual official high and low records may vary slightly from our data, if they occured in-between our weather recording intervals... More about our weather records

Advertising

Rothesay Weather History for the Previous 24 Hours

 ConditionsComfort  
Time TempWeatherWind HumidityBarometerVisibility
10:00 PM
Mon, Feb 8
21 °FLight snow. Ice fog.22 mph86%29.65 "Hg1 mi
9:00 PM21 °FLight snow. Ice fog.20 mph86%29.67 "Hg1 mi
8:00 PM21 °FLight snow. Ice fog.21 mph86%29.72 "Hg1 mi
7:00 PM19 °FLight snow. Ice fog.21 mph86%29.75 "Hg1 mi
6:00 PM21 °FLight snow. Mostly cloudy.22 mph80%29.79 "Hg8 mi
5:00 PM21 °FLight snow. More clouds than sun.20 mph74%29.83 "Hg10 mi
4:00 PM21 °FLight snow. Mostly cloudy.20 mph74%29.86 "Hg15 mi
3:00 PM21 °FMore clouds than sun.20 mph74%29.88 "Hg15 mi
2:00 PM21 °FMostly cloudy.22 mph74%29.90 "Hg15 mi
1:00 PM23 °FMostly cloudy.21 mph68%29.92 "Hg15 mi
12:00 PM21 °FOvercast.21 mph68%29.95 "Hg15 mi
11:00 AM19 °FOvercast.17 mph73%30.02 "Hg15 mi
10:00 AM18 °FOvercast.16 mph73%30.04 "Hg15 mi
9:00 AM14 °FOvercast.16 mph79%30.10 "Hg15 mi
8:00 AM12 °FOvercast.13 mph79%30.14 "Hg15 mi
7:00 AM10 °FPassing clouds.14 mph72%30.15 "Hg15 mi
6:00 AM10 °FPassing clouds.12 mph72%30.19 "Hg15 mi
5:00 AM9 °FClear.12 mph72%30.19 "Hg15 mi
4:00 AM9 °FClear.14 mph66%30.23 "Hg15 mi
3:00 AM10 °FClear.17 mph61%30.25 "Hg15 mi
2:00 AM9 °FClear.7 mph66%30.27 "Hg15 mi
1:00 AM12 °FClear.15 mph57%30.27 "Hg15 mi
12:00 AM12 °FClear.9 mph57%30.29 "Hg15 mi
11:00 PM
Sun, Feb 7
14 °FClear.9 mph52%30.27 "Hg15 mi
Weather by CustomWeather, © 2016

See weather overviewHow to use our weather pages